Theta_e
323 325 325 325 325 326 326 327 328 327 326 326 322 326 330 330 332 333 337 338 339 341 340 338 336 334 330 333 330 330 334 332 334 332 334 334 331 324 320 312 312 314 316
325 324 324 324 324 325 326 325 326 327 328 327 323 324 331 331 333 334 335 338 339 339 338 336 335 331 332 334 331 332 332 334 332 333 335 330 323 319 310 314 315 318 323
323 324 324 324 325 324 324 325 325 326 327 327 323 329 330 331 332 333 334 337 337 338 337 336 334 332 334 331 332 333 334 332 333 335 332 323 320 311 316 314 322 324 322
322 323 326 325 325 323 324 324 325 327 328 329 327 330 332 332 332 333 334 336 337 337 336 336 334 333 330 332 335 335 334 333 335 332 324 322 313 312 317 324 324 323 322
318 324 326 325 326 323 324 323 324 325 328 328 328 328 331 332 331 335 335 336 336 336 336 334 332 333 332 332 336 336 333 335 332 324 323 316 312 313 323 324 323 321 317
320 326 327 326 325 324 324 323 325 326 328 330 330 329 330 331 331 336 337 337 335 335 333 335 334 332 331 332 334 334 335 333 325 323 318 315 312 319 324 323 321 320 318
325 326 327 326 325 324 325 324 326 327 328 328 329 326 330 330 331 337 336 336 335 334 332 332 333 330 329 329 330 331 335 329 324 322 318 315 313 318 320 320 320 317 316
326 325 326 326 325 324 324 326 326 328 328 329 329 330 332 332 334 335 335 334 333 333 330 330 331 327 327 330 328 331 333 325 325 320 319 317 313 311 314 317 315 315 313
327 326 327 326 325 326 324 326 327 328 328 330 330 331 329 330 332 333 333 333 332 330 331 331 328 329 326 326 327 332 331 329 329 324 319 316 312 311 314 317 315 314 313
327 327 326 326 326 325 326 327 327 327 328 329 331 330 331 332 333 334 332 331 330 330 330 328 329 327 329 329 330 332 331 330 327 323 320 316 311 312 313 314 313 313 314
327 327 328 327 327 328 326 327 325 327 325 330 330 331 331 331 332 332 333 330 330 329 329 328 328 329 329 329 331 330 330 327 324 322 320 314 316 315 313 312 313 313 315
328 327 327 328 327 327 327 328 325 327 323 329 331 331 331 331 331 330 331 329 330 328 326 326 327 329 329 330 330 328 328 325 324 322 317 315 316 313 313 313 314 314 316
328 327 328 327 327 327 328 327 328 327 327 331 331 331 330 331 330 330 330 329 329 328 330 329 328 329 331 330 328 329 326 325 324 321 316 314 313 314 315 314 314 315 315
328 327 327 327 327 328 329 328 328 329 330 331 331 331 330 330 330 329 330 329 329 327 329 330 328 330 330 329 330 330 326 324 323 319 315 313 314 313 313 314 313 313 313
329 330 329 329 328 329 329 329 330 330 331 331 331 331 330 329 329 329 329 329 329 330 328 329 329 328 328 328 329 327 324 323 322 316 316 318 314 312 312 312 312 312 312
329 330 331 331 330 330 329 329 331 331 330 330 330 329 329 329 328 329 329 328 328 328 328 329 329 328 328 328 329 328 326 324 317 313 312 312 311 310 311 312 312 312 311
328 330 331 331 330 330 329 328 329 329 329 327 329 329 330 328 328 329 328 328 328 328 328 329 328 328 329 327 329 327 326 322 317 313 310 310 310 311 312 313 313 313 311
330 330 329 330 330 330 329 329 327 327 328 329 328 328 328 328 329 329 328 328 328 328 328 328 330 330 330 330 328 326 327 326 324 318 310 310 311 313 314 314 313 312 311
331 332 330 329 329 329 328 328 329 327 327 327 328 329 327 328 328 329 328 328 328 328 328 328 329 330 329 329 327 324 325 323 323 322 318 317 316 314 314 314 313 313 311
330 331 331 329 330 330 328 328 327 328 327 327 327 328 327 328 328 328 327 327 327 328 328 327 328 329 326 323 321 323 323 325 325 325 323 320 320 320 318 317 315 314 313
329 329 331 330 330 331 329 330 329 327 327 327 327 327 328 328 327 327 328 328 327 328 327 326 326 325 322 323 321 318 323 324 325 324 323 321 320 320 319 317 316 315 314
329 325 327 330 330 331 330 329 329 330 328 328 328 328 328 329 328 327 327 327 327 328 325 325 325 323 322 322 325 325 325 326 323 323 324 323 322 321 319 319 319 318 316
324 323 324 328 331 331 329 329 328 329 328 328 328 328 328 328 328 328 328 328 327 327 325 323 323 322 323 323 323 325 324 323 324 325 325 324 323 322 322 321 320 319 319
321 323 323 325 329 331 331 330 328 327 328 329 328 327 327 328 328 328 328 323 324 325 326 327 323 324 324 323 323 323 325 324 326 324 321 324 319 313 310 313 315 312 309
321 320 322 324 325 326 329 325 325 328 330 329 329 327 324 323 323 321 320 322 322 322 323 321 323 324 325 324 323 324 325 322 317 314 311 311 310 311 313 312 310 307 306
326 321 319 322 324 326 327 328 326 326 327 325 320 322 320 317 321 321 320 320 320 319 318 318 316 313 311 313 313 312 310 310 309 310 312 310 310 310 309 309 307 307 305
Wind_Speed
11 11 9 9 10 12 15 19 21 21 19 20 20 18 19 17 16 18 19 17 23 29 28 30 28 30 32 28 26 24 25 25 24 23 21 19 17 15 13 11 12 12 13
12 12 11 11 11 13 15 18 24 23 23 19 20 20 19 15 20 17 18 20 26 28 31 32 32 33 27 29 27 25 25 26 25 23 20 17 15 14 13 13 13 13 14
14 13 13 12 12 12 14 18 19 20 21 19 21 20 17 14 21 19 21 24 24 29 34 33 33 34 28 28 28 28 27 25 24 22 18 16 14 13 14 13 14 14 15
13 12 12 12 11 13 16 20 20 16 16 15 21 19 16 14 19 21 23 25 25 32 33 35 34 34 35 29 28 29 27 26 23 19 17 15 14 13 14 14 14 14 15
12 11 12 10 9 10 18 21 21 19 18 18 18 15 15 20 18 22 24 28 31 31 33 35 34 32 34 28 29 28 27 23 20 19 17 15 13 12 15 15 15 14 13
10 9 11 8 8 10 16 20 20 19 18 16 18 13 19 16 19 23 29 34 31 33 31 27 25 31 30 28 29 27 23 20 19 19 17 14 13 14 15 14 14 12 12
8 10 9 8 10 12 16 18 16 13 17 18 20 13 8 10 17 28 33 31 33 32 32 24 26 30 27 29 28 26 23 20 18 16 15 16 13 14 14 12 12 12 11
7 11 8 8 12 12 13 15 16 12 16 16 16 18 3 6 15 25 32 31 31 30 30 29 30 36 31 30 28 23 21 18 17 16 17 13 12 11 11 12 11 10 9
4 7 5 8 11 13 14 15 17 13 8 14 18 7 3 3 8 18 30 31 31 31 27 32 39 34 32 30 28 21 21 21 20 17 13 11 10 11 11 10 10 8 6
3 7 9 10 9 8 14 16 16 15 17 11 14 7 7 20 3 5 21 29 32 31 32 31 36 33 30 29 25 23 22 21 18 14 11 9 11 12 11 10 9 7 4
5 7 11 9 9 6 13 17 15 19 17 18 10 14 21 20 13 4 8 15 23 28 32 33 30 30 28 28 22 22 21 18 15 12 10 10 13 13 12 10 7 6 4
6 11 13 9 9 6 12 15 13 19 19 19 20 24 24 10 12 8 8 15 15 22 28 29 27 25 27 25 21 19 18 15 12 12 11 13 13 13 11 9 8 6 6
9 12 12 11 11 10 11 14 16 17 17 17 24 24 28 35 29 25 21 15 9 22 14 25 28 25 24 24 19 18 15 13 12 11 12 13 13 13 11 8 8 7 6
10 11 12 13 10 11 12 13 17 20 20 24 27 23 31 31 37 34 26 24 9 3 14 14 26 25 24 22 18 15 15 14 12 11 13 14 15 12 10 9 8 9 9
10 9 12 12 13 13 13 16 20 22 23 26 25 28 29 31 33 29 32 28 18 6 2 15 9 26 21 20 16 17 16 14 13 14 14 13 12 10 9 9 11 12 12
9 11 13 15 17 17 20 23 24 26 26 26 27 24 26 31 32 35 31 24 22 18 3 12 11 24 20 18 15 13 11 12 13 12 12 13 12 11 11 12 13 14 15
12 14 14 19 21 24 25 26 24 25 25 23 22 24 24 31 29 34 33 29 29 17 15 8 20 19 20 17 14 13 10 10 12 13 14 14 13 13 13 15 15 17 21
15 15 18 19 24 24 25 28 28 27 27 24 22 21 28 30 29 32 34 32 25 22 20 14 17 18 17 15 14 19 14 14 13 11 13 13 15 14 16 19 19 21 21
15 14 15 17 20 20 22 22 24 25 25 24 24 23 26 32 29 29 29 26 22 15 14 17 13 19 16 18 16 19 14 12 13 11 13 15 16 18 19 23 24 25 27
17 14 15 16 18 18 19 21 22 21 19 19 21 25 27 31 32 25 22 26 16 12 19 22 19 20 16 14 14 17 14 15 14 14 14 18 20 20 23 25 27 29 31
17 17 15 16 13 13 18 19 22 23 21 21 19 23 24 27 30 28 27 22 14 19 25 22 16 14 15 14 15 18 16 15 17 19 21 21 22 23 24 24 26 26 28
16 17 16 17 15 14 16 21 23 22 21 21 21 24 22 26 30 25 22 16 11 27 23 19 18 21 21 19 17 18 19 18 7 13 22 26 27 31 30 30 30 29 28
17 18 20 20 21 21 22 24 24 21 23 22 25 28 24 23 24 23 20 13 11 24 21 22 23 23 24 24 22 23 21 21 20 17 12 17 18 27 27 28 29 28 27
17 20 21 23 24 23 22 22 24 22 21 21 24 24 20 19 17 18 16 16 14 16 16 12 23 18 17 14 15 19 18 17 7 4 6 9 9 10 13 15 11 10 12
20 19 19 20 23 21 22 22 21 21 19 19 20 20 20 17 18 20 20 18 15 12 9 7 7 4 3 5 6 9 7 5 3 1 6 5 9 21 19 11 15 20 18
16 18 18 16 17 21 21 21 21 22 21 21 21 21 18 17 17 16 17 15 11 8 4 4 2 3 4 2 3 4 4 1 2 1 9 10 8 12 6 4 19 23 23
Wind_Direction
272 275 273 274 265 250 233 209 209 214 222 219 217 230 224 206 208 208 201 200 192 186 182 169 165 167 163 165 167 174 168 161 156 154 149 146 142 139 130 129 121 114 114
261 272 267 266 261 235 232 221 218 214 219 227 223 231 216 200 204 199 194 184 185 187 171 166 167 163 173 168 166 172 165 160 159 153 151 148 142 132 129 124 117 116 115
256 266 270 264 270 236 226 220 220 219 225 233 221 221 208 206 197 191 189 181 176 179 171 167 166 164 165 163 169 167 166 160 158 156 150 148 138 132 127 121 120 122 119
253 269 263 258 261 233 218 215 214 215 218 219 205 208 201 207 185 185 184 173 170 167 172 170 169 164 163 170 168 162 163 161 159 152 151 146 139 130 123 124 129 127 124
254 255 261 260 256 233 207 211 213 212 219 204 207 213 197 179 180 181 175 168 171 168 165 171 165 168 163 169 165 156 160 160 158 152 155 145 133 133 136 137 135 129 125
249 243 258 250 233 205 202 206 215 211 217 199 171 167 196 176 183 171 166 165 167 171 164 164 173 165 163 165 159 150 156 161 159 161 154 139 138 141 140 139 133 133 129
250 225 250 237 216 203 195 201 209 215 219 194 163 138 182 183 181 159 164 160 165 169 168 164 161 157 150 156 159 159 159 161 161 161 151 149 132 143 139 140 142 142 138
251 213 236 227 204 194 192 197 202 207 204 181 169 144 136 100 145 151 149 157 162 167 160 163 161 153 157 165 162 168 160 163 170 167 156 145 138 140 147 155 150 153 143
202 186 197 191 190 188 182 195 189 188 184 183 165 130 124 168 143 144 141 150 152 159 160 158 152 162 164 165 164 173 169 168 169 164 152 149 143 148 157 161 160 161 154
188 183 166 177 185 170 160 155 167 177 173 175 179 148 157 146 133 141 131 142 145 148 157 158 155 161 167 171 174 173 165 167 166 161 157 155 152 157 161 174 176 170 170
171 171 164 166 172 174 158 151 151 171 186 183 163 127 111 111 118 128 134 132 134 147 158 157 164 163 172 170 178 168 169 169 166 162 161 161 164 166 173 182 183 190 197
164 174 166 165 167 154 162 163 163 169 158 162 170 147 138 126 132 115 118 132 131 138 150 156 161 173 174 170 169 171 170 170 172 172 170 168 171 177 182 186 199 212 213
152 162 170 168 165 166 168 165 176 172 175 169 159 154 144 132 138 127 129 128 133 139 148 163 169 172 164 162 167 171 174 176 178 176 179 180 180 185 191 199 213 224 229
145 155 170 174 164 166 167 165 162 162 164 160 158 152 143 141 156 152 142 138 140 125 129 149 177 172 163 164 164 177 179 180 184 192 187 188 191 191 201 215 230 241 250
127 143 150 157 166 167 159 152 148 144 139 142 151 144 136 141 144 142 142 148 150 131 119 139 140 167 163 168 170 179 184 188 198 194 194 199 200 205 219 239 247 244 254
127 142 146 145 144 148 146 141 134 136 133 139 141 135 133 139 141 141 144 138 128 116 112 129 143 168 176 178 179 190 197 205 203 202 204 209 215 223 235 245 255 261 265
116 124 142 140 138 143 146 143 133 141 138 134 133 134 131 144 136 139 137 135 133 125 125 121 159 178 181 186 185 189 188 201 211 214 216 219 226 238 251 262 265 265 262
109 111 131 139 143 139 142 142 138 136 134 139 140 138 140 146 142 143 144 140 135 149 141 131 151 162 170 178 185 189 201 221 222 226 232 237 245 256 264 267 267 268 273
113 111 115 127 137 140 145 152 146 143 139 138 147 144 147 149 144 143 140 146 132 144 161 156 166 181 176 187 190 193 207 213 226 248 246 251 259 261 269 270 271 273 271
118 106 112 133 135 144 149 153 154 151 148 151 151 150 156 153 148 148 147 146 147 164 179 176 177 180 187 189 195 197 216 232 236 249 257 255 262 270 272 276 278 275 274
109 101 110 129 143 141 154 154 150 146 145 141 148 151 154 157 155 150 147 153 167 180 173 169 171 177 184 195 205 207 227 241 249 257 258 265 275 276 277 276 277 277 277
115 111 113 131 141 139 134 143 146 149 153 155 155 153 151 157 160 160 166 175 189 177 177 171 174 178 196 204 210 221 230 240 265 273 268 265 270 266 269 273 277 278 283
129 120 113 110 132 135 136 133 134 143 146 148 155 155 158 162 169 184 198 211 211 192 189 187 189 195 201 208 215 226 234 243 249 269 292 271 282 272 282 285 287 287 293
130 130 127 118 121 132 142 150 153 151 155 154 155 162 167 173 184 187 187 172 154 162 171 189 210 208 221 224 235 244 253 253 259 334 318 284 347 11 354 5 5 4 349
136 135 136 135 133 129 138 140 146 151 156 158 157 161 160 160 159 165 168 163 158 149 147 126 124 142 175 202 223 240 258 293 296 215 23 12 344 343 339 345 349 358 346
144 148 147 150 145 139 140 143 145 144 148 156 157 160 167 167 168 174 177 180 177 169 176 181 174 245 277 272 254 260 242 177 67 25 12 358 343 353 336 337 343 354 350